Regional Weather Roundup
Issued by NWS

Home | Current Version | Previous Version | Text Only | Print | Product List | Glossary On
Versions: 1 2 3 4 5 6 7 8 9 10 11 12 13 14 15 16 17 18 19 20 21 22 23 24 25 26 27 28 29 30 31 32 33 34 35 36 37 38 39 40 41 42 43 44 45 46 47 48 49 50
562
ASUS45 KCYS 210710
RWRWY

WYOMING REGIONAL WEATHER ROUNDUP
NATIONAL WEATHER SERVICE CHEYENNE WY
1200 AM MST WED FEB 21 2018

NOTE:  "FAIR" INDICATES FEW OR NO CLOUDS BELOW 12,000 FEET
WITH NO SIGNIFICANT WEATHER AND/OR OBSTRUCTIONS TO VISIBILITY.

WYZ001-210800-
YELLOWSTONE NATIONAL PARK

CITY           SKY/WX    TMP DP  RH WIND       PRES   REMARKS
LK YELLOWSTONE   N/A    -24 -29  77 CALM      29.95S
W YELLOWSTONE  NOT AVBL

$$
WYZ002>013-054>058-071-098>099-210800-
NORTHERN WYOMING

CITY           SKY/WX    TMP DP  RH WIND       PRES   REMARKS
JACKSON        LGT SNOW   2  -1  88 SE6       30.05S FOG     WCI  -9
CODY           FAIR     -15 -18  86 CALM      30.08S
GREYBULL       FAIR     -21 -25  81 SE3       30.20S
WORLAND        FAIR     -17 -22  78 S6        30.17R WCI -32
SHERIDAN       FAIR     -14 -20  74 CALM      30.16R
BUFFALO        FAIR       2 -12  52 CALM      30.10R
GILLETTE       FAIR      -8 -17  64 S12       30.15S WCI -27
HULETT         FAIR      -4 -11  71 MISG      30.17S
NEWCASTLE      FAIR     -13 -18  77 N5        30.22R WCI -25

$$
WYZ014>020-022>026-101>103-210800-
CENTRAL WYOMING

CITY           SKY/WX    TMP DP  RH WIND       PRES   REMARKS
BIG PINEY      FAIR     -20 -24  82 E6        30.05R WCI -35
PINEDALE       FAIR     -17 -24  70 NW3       30.06R
DUBOIS           N/A    N/A N/A N/A MISG        N/A
LANDER         FAIR     -12 -16  82 S6        30.07R WCI -26
RIVERTON       FAIR     -13 -19  75 NW6       30.08R WCI -27
CASPER         FAIR       0  -7  72 SW17      30.09R WCI -21
DOUGLAS        FAIR     -20 -23  86 CALM      30.15R

$$
WYZ021-027>030-104>119-210800-
SOUTHERN WYOMING

CITY           SKY/WX    TMP DP  RH WIND       PRES   REMARKS
EVANSTON       FAIR       3  -1  83 E5        30.03R WCI  -6
ROCK SPRINGS   FAIR       0  -7  72 S8        30.06R WCI -14
DIXON          FAIR      -5 -11  75 SE9       30.13S WCI -21
RAWLINS        FAIR       2  -5  72 SW12      30.06R WCI -15
SARATOGA       FAIR      -6 -13  71 CALM      30.07R
LARAMIE        FAIR      -2 -11  65 SE9       30.03R WCI -18
CHEYENNE       FAIR       1  -4  79 SW8       30.11S WCI -13
TORRINGTON     FAIR      -8 -12  83 E9        30.22R WCI -25
PINE BLUFFS    FAIR      -9 -15  77 MISG      30.21R

$$




USA.gov is the U.S. government's official web portal to all federal, state and local government web resources and services.